EHI
1 2 2 2 1 0 0 0 0 0 1 2 2 2 4 5 4 3 5 8 11 14 16 13 8 4 2 1 1 1 1 0 0 0 0 0 0 0 0 0 0 0 0
0 1 1 1 0 0 0 0 0 0 0 1 1 1 2 2 2 1 2 4 6 9 11 12 9 4 2 1 1 0 0 0 0 0 0 0 0 0 0 0 0 0 0
0 0 0 0 0 0 0 0 0 0 0 0 0 0 0 0 0 0 0 0 2 3 6 8 9 7 4 2 1 0 0 0 0 0 0 0 0 0 0 0 0 0 0
0 0 0 0 0 0 0 0 0 0 0 0 0 0 0 0 0 0 0 0 0 1 2 5 9 12 11 7 4 1 0 0 0 0 0 0 0 0 0 0 0 0 0
0 0 0 0 0 0 0 0 0 0 0 0 0 0 0 0 0 0 0 0 0 0 1 2 6 13 16 15 12 8 3 1 0 0 0 0 0 0 0 0 0 0 0
0 0 0 0 0 0 0 0 0 0 0 0 0 0 0 0 0 0 0 0 0 0 0 1 3 6 11 16 19 17 11 7 3 1 0 0 0 0 0 0 0 0 0
0 0 0 0 0 0 0 0 0 0 0 0 0 0 0 0 0 0 0 0 0 0 0 0 0 1 4 8 14 17 16 12 8 3 1 0 0 0 0 0 0 0 0
0 0 0 0 0 0 0 0 0 0 0 0 0 0 0 0 0 0 0 0 0 0 0 0 0 0 0 2 5 8 10 12 10 6 3 2 0 0 0 0 0 0 0
0 0 0 0 0 0 0 0 0 0 0 0 0 0 0 0 0 0 0 0 0 0 0 0 0 0 0 0 1 1 3 5 7 6 5 4 2 1 1 0 0 0 0
0 0 0 0 0 0 0 0 0 0 0 0 0 0 0 0 0 0 0 0 0 0 0 0 0 0 0 0 0 0 0 1 2 3 4 3 5 7 7 4 1 0 0
0 0 0 0 0 0 0 0 0 0 0 0 0 0 0 0 0 0 0 0 0 0 0 0 0 0 0 0 0 0 0 0 0 0 1 2 5 11 16 13 6 1 0
0 0 0 0 0 0 0 0 0 0 0 0 0 0 0 0 0 0 0 0 0 0 0 0 0 0 0 0 0 0 0 0 0 0 0 0 2 7 14 17 10 4 1
0 0 0 0 0 0 0 0 0 0 0 0 0 0 0 0 0 0 0 0 0 0 0 0 0 0 0 0 0 0 0 0 0 0 0 0 0 1 5 9 10 7 4
0 0 0 0 0 0 0 0 0 0 0 0 0 0 0 0 0 0 0 0 0 0 0 0 0 0 0 0 0 0 0 0 0 0 0 0 0 0 0 2 6 8 7
0 0 0 0 0 0 0 0 0 0 0 0 0 0 0 0 0 0 0 0 0 0 0 0 0 0 0 0 0 0 0 0 0 0 0 0 0 0 0 0 2 4 6
0 0 0 0 0 0 0 0 0 0 0 0 0 0 0 0 0 0 0 0 0 0 0 0 0 0 0 0 0 0 0 0 0 0 0 0 0 0 0 0 0 1 2
0 0 0 0 0 0 0 0 0 0 0 0 0 0 0 0 0 0 0 0 0 0 0 0 0 0 0 0 0 0 0 0 0 0 0 0 0 0 0 0 0 0 0
0 0 0 0 0 0 0 0 0 0 0 0 0 0 0 0 0 0 0 0 0 0 0 0 0 0 0 0 0 0 0 0 0 0 0 0 0 0 0 0 0 0 0
0 0 0 0 0 0 0 0 0 0 0 0 0 0 0 0 0 0 0 0 0 0 0 0 0 0 0 0 0 0 0 0 0 0 0 0 0 0 0 0 0 0 0
0 0 0 0 0 0 0 0 0 0 0 0 0 0 0 0 0 0 0 0 0 0 0 0 0 0 0 0 0 0 0 0 0 0 0 0 0 0 0 0 0 0 0
0 0 0 0 0 0 0 0 0 0 0 0 0 0 0 0 0 0 0 0 0 0 0 0 0 0 0 0 0 0 0 0 0 0 0 0 0 0 0 0 0 0 0
0 0 0 0 0 0 0 0 0 0 0 0 0 0 0 0 0 0 0 0 0 0 0 0 0 0 0 0 0 0 0 0 0 0 0 0 0 0 0 0 0 0 0
0 0 0 0 0 0 0 0 0 0 0 0 0 0 0 0 0 0 0 0 0 0 0 0 0 0 0 0 0 0 0 0 0 0 0 0 0 0 0 0 0 0 0
0 0 0 0 0 0 0 0 0 0 0 0 0 0 0 0 0 0 0 0 0 0 0 0 0 0 0 0 0 0 0 0 0 0 0 0 0 0 0 0 0 0 0
0 0 0 0 0 0 0 0 0 0 0 0 0 0 0 0 0 0 0 0 0 0 0 0 0 0 0 0 0 0 0 0 0 0 0 0 0 0 0 0 0 0 0
0 0 0 0 0 0 0 0 0 0 0 0 0 0 0 0 0 0 0 0 0 0 0 0 0 0 0 0 0 0 0 0 0 0 0 0 0 0 0 0 0 0 0
Wind_Speed
8 7 7 7 7 8 8 8 9 8 7 7 7 7 6 5 5 4 5 6 6 6 6 6 5 6 6 6 7 6 8 8 6 6 7 7 9 9 8 8 9 9 9
8 8 7 8 9 9 8 8 9 9 8 7 5 5 6 6 5 5 5 7 7 7 6 6 6 6 5 7 7 7 7 6 6 6 6 7 8 8 9 8 9 9 9
7 7 8 8 8 8 9 8 8 8 8 7 6 5 5 5 5 6 5 7 8 7 7 7 7 6 7 6 8 8 10 8 7 7 7 6 5 3 5 7 7 7 7
5 6 7 8 9 9 9 9 9 9 8 8 8 9 7 7 7 6 6 7 7 7 7 6 6 7 7 7 9 9 8 9 8 7 7 8 6 5 3 6 7 8 7
4 6 8 9 10 11 11 10 10 10 10 9 9 9 10 9 7 7 6 7 5 5 6 6 6 6 6 7 9 8 10 8 9 8 6 7 6 8 7 4 5 7 8
5 7 9 11 11 12 12 12 12 12 12 12 11 11 12 11 11 10 9 7 6 4 4 4 4 5 5 6 7 8 11 10 10 8 7 6 7 7 7 7 6 5 5
7 9 11 13 13 13 13 12 12 13 13 14 13 13 13 13 13 12 10 8 8 7 4 4 4 4 4 5 6 7 9 10 10 10 8 8 8 6 6 7 6 5 4
9 10 12 13 13 12 12 12 14 14 15 15 14 13 13 12 12 12 11 11 9 9 7 6 6 6 6 6 5 6 7 7 9 11 10 8 8 8 7 7 6 6 6
10 12 13 13 12 12 13 14 15 15 16 16 15 14 14 13 13 13 13 12 10 10 10 10 9 8 8 7 6 6 6 6 7 8 10 10 9 8 8 8 7 7 6
12 13 13 13 13 14 15 15 16 16 16 16 15 13 15 15 14 14 14 14 14 13 12 12 12 11 10 10 9 7 6 6 6 5 6 8 9 8 8 8 8 7 7
14 14 14 14 14 15 16 16 16 17 16 16 15 15 15 15 15 14 15 14 13 13 13 13 13 13 13 12 11 10 9 9 7 6 5 6 7 7 8 8 9 8 7
15 15 16 15 15 17 17 17 17 17 17 16 16 16 16 16 16 16 16 15 15 14 15 14 15 15 15 15 14 13 12 11 10 9 7 6 4 7 7 7 10 9 8
16 16 15 15 16 16 17 17 17 17 16 16 16 16 16 17 16 16 16 16 16 16 16 16 16 15 15 16 16 15 14 13 12 11 10 9 7 7 5 7 9 8 9
15 15 15 15 15 16 16 16 16 16 16 16 16 16 16 16 16 16 16 16 16 16 16 16 17 16 16 16 16 17 15 14 13 12 12 12 11 9 6 4 7 8 9
15 16 16 15 16 16 16 16 15 15 15 16 16 17 17 17 17 16 16 16 16 16 16 17 17 17 15 15 16 16 16 15 14 13 13 13 14 14 10 5 3 4 6
16 17 17 17 16 16 15 15 15 15 15 16 16 16 17 17 17 17 17 16 16 16 16 16 16 16 14 12 13 14 16 15 14 13 13 13 15 17 16 13 9 5 6
17 17 17 16 15 15 14 14 14 15 15 15 16 16 16 17 17 18 17 17 16 16 15 15 15 15 15 12 12 14 15 14 13 13 11 10 12 16 14 14 13 10 10
16 16 16 15 14 14 14 13 14 14 15 15 15 15 16 17 17 17 17 17 14 14 13 14 14 14 14 13 12 13 15 15 14 12 12 11 9 13 13 13 13 11 10
15 14 15 15 14 14 13 14 15 14 15 15 15 16 17 17 17 17 17 15 14 13 13 13 13 13 13 12 12 13 13 12 14 12 12 12 11 11 12 11 11 11 10
14 14 14 14 13 13 13 14 15 15 15 15 16 16 16 16 17 17 16 13 12 12 12 12 12 12 12 10 12 14 11 11 11 10 10 9 8 11 13 11 10 10 9
15 14 13 13 12 12 13 14 15 15 15 15 16 16 16 16 16 15 13 12 11 11 11 11 10 10 9 7 9 11 9 9 10 10 10 10 13 10 11 9 8 7 6
15 14 13 13 12 12 12 14 15 15 15 15 16 16 16 14 13 14 13 11 9 9 9 9 8 6 6 5 7 7 4 3 6 7 6 7 14 11 10 9 6 4 5
14 13 13 14 13 12 11 14 15 14 14 15 16 16 16 14 13 12 12 10 8 7 6 6 6 5 4 5 8 8 6 4 5 3 5 8 9 8 10 11 7 7 8
14 13 13 14 14 13 12 12 14 13 13 15 15 14 14 13 12 10 8 8 7 7 6 5 4 4 4 5 7 8 8 9 8 7 6 8 7 7 6 8 10 9 8
13 13 13 13 15 14 13 13 12 12 13 14 14 14 13 12 11 10 7 8 7 5 7 6 5 4 3 2 2 4 7 8 8 8 8 8 8 9 10 10 9 8 7
14 13 14 14 15 15 14 13 12 12 13 12 12 11 10 10 10 9 8 4 4 4 4 6 7 5 1 2 1 1 3 2 0 5 9 8 9 10 10 10 9 8 7
Wind_Direction
69 63 58 55 59 52 46 36 28 24 10 10 359 353 347 336 339 336 335 317 297 274 256 256 242 242 240 240 236 235 233 238 243 251 251 244 238 235 235 237 244 235 231
76 67 61 57 50 44 34 30 26 21 12 13 354 347 335 328 342 344 351 344 332 312 278 256 248 237 245 241 245 239 256 245 227 247 258 251 230 214 228 232 231 240 233
64 56 45 38 32 24 15 12 7 3 5 352 344 346 336 327 349 350 353 352 342 335 321 296 271 255 248 242 237 237 241 251 239 232 251 260 256 224 188 216 223 219 222
49 28 15 10 4 358 354 352 347 346 343 331 338 340 333 334 338 330 343 336 340 341 339 324 301 275 253 246 241 233 239 246 250 227 232 259 303 288 225 191 199 204 215
2 352 348 346 343 340 338 336 336 332 328 322 312 305 310 316 312 314 316 313 322 326 336 336 324 303 281 261 250 248 237 237 246 246 224 220 222 238 268 249 197 199 209
317 324 328 329 328 328 328 329 330 327 324 315 307 298 298 297 298 296 299 295 298 294 304 315 317 309 301 288 268 255 241 239 244 252 246 229 225 219 225 242 237 225 216
306 316 323 325 322 322 326 328 330 329 326 320 313 305 297 291 283 281 284 282 284 281 274 277 279 287 285 282 277 265 259 246 238 237 243 243 242 244 230 235 238 238 231
313 322 325 323 319 321 324 327 328 325 322 319 317 311 301 292 290 289 289 285 279 278 277 257 249 252 257 262 264 263 257 254 246 241 243 248 243 237 232 231 232 228 217
315 317 323 323 320 317 319 322 322 320 320 319 315 306 305 302 298 295 282 277 274 273 262 251 246 241 237 239 244 250 253 250 246 245 243 245 247 236 231 227 229 240 230
312 319 323 323 322 319 318 318 318 319 318 316 317 316 316 309 304 297 293 289 285 278 271 261 253 246 238 229 226 232 234 240 239 242 252 249 254 247 232 225 223 231 250
319 321 320 323 322 320 319 320 320 318 316 315 316 314 310 309 305 299 293 287 281 279 273 265 260 252 243 234 226 229 218 223 230 231 237 249 264 265 249 231 222 219 226
319 320 321 322 321 321 321 319 319 316 315 315 313 309 307 304 302 299 299 296 288 279 271 267 263 258 250 239 230 229 222 217 218 220 222 231 247 262 267 255 236 222 216
321 321 320 322 320 320 318 317 315 315 316 315 311 309 307 305 303 302 299 296 291 283 276 269 262 257 253 246 236 232 227 222 221 216 216 218 213 233 245 264 254 235 216
320 320 320 319 319 316 315 314 314 316 316 314 312 309 308 307 305 302 299 295 291 287 279 270 263 257 251 246 240 233 230 226 224 218 214 212 207 211 213 242 264 254 231
322 321 320 320 318 317 317 315 315 316 316 313 309 309 309 308 305 303 301 298 294 289 284 278 268 258 251 243 237 233 229 225 225 221 218 214 208 202 200 200 235 278 257
322 322 321 320 320 319 317 317 314 314 313 309 308 310 309 307 306 304 300 296 293 291 287 280 273 263 253 240 228 232 233 228 225 224 221 218 204 201 197 197 202 232 272
322 320 320 319 319 318 318 315 314 312 309 306 306 307 308 308 305 304 303 299 296 293 288 283 275 267 261 250 226 226 237 231 224 220 218 221 205 193 196 196 199 215 241
319 318 317 318 317 319 319 316 311 308 306 306 308 311 311 308 306 304 301 297 294 290 286 283 278 271 262 244 223 215 230 233 222 214 209 216 204 193 192 190 193 201 214
317 314 314 315 316 317 320 316 309 308 307 309 313 313 311 309 306 302 299 298 294 287 283 281 279 273 265 242 217 207 224 223 218 211 205 203 199 179 182 196 198 201 209
317 315 313 312 314 322 321 313 309 309 308 312 313 312 310 307 305 303 301 297 291 286 283 278 274 272 267 240 208 204 220 213 208 206 204 202 206 167 179 204 205 210 212
316 314 311 312 319 321 316 308 307 305 309 311 310 310 309 308 306 306 303 300 294 287 282 279 273 269 261 219 193 201 223 205 206 198 199 190 168 170 188 218 226 222 223
318 317 313 314 318 319 315 309 307 308 310 307 307 310 311 312 311 310 307 304 300 291 284 278 272 259 239 202 176 187 216 274 220 208 202 148 152 172 191 214 224 212 225
319 316 314 314 317 321 318 310 309 310 307 304 305 308 311 311 309 310 312 309 303 294 289 282 275 252 218 179 168 180 191 223 247 232 70 102 142 173 202 218 212 211 224
319 318 317 315 317 320 318 310 308 309 305 302 304 306 308 309 311 311 311 312 312 308 301 295 282 253 222 198 184 188 191 201 220 230 185 167 179 224 245 198 198 217 224
319 318 316 314 314 317 315 314 312 311 305 302 301 303 305 309 308 309 312 313 316 317 306 308 308 282 245 196 168 205 204 211 212 215 215 213 204 208 213 215 212 212 212
319 318 318 317 316 315 314 317 319 315 308 303 302 300 303 306 308 312 314 284 265 294 286 281 287 291 323 73 157 253 293 314 69 227 224 219 220 220 214 211 208 206 210